CW7769 Weather Reports


time (UTC)temp
C
wind
direction
speed
KPH
gust
KPH
rain 1hr
cm
rain 24hr
cm
rain mn
cm
humidity
%
barometer
mb
20260506230440 11 35 0.0 0.0 0.00 1.12 0.05 77 1009.9
20260506224331 11 35 0.0 0.0 0.00 1.12 0.05 76 1009.8
20260506220015 11 35 0.0 0.0 0.23 1.07 0.00 75 1009.6
20260506215006 11 35 0.0 0.0 0.56 1.02 1.02 75 1009.5
20260506214012 11 35 0.0 0.0 0.46 0.94 0.94 75 1009.5
20260506213018 11 32 0.0 0.0 0.58 0.84 0.84 74 1009.4
20260506212025 11 19 1.6 9.7 0.51 0.79 0.76 74 1009.1
20260506211007 11 38 0.0 3.2 0.74 0.66 0.66 74 1009.0
20260506204827 12 254 4.8 17.7 0.86 0.25 0.28 74 1008.5
20260506203831 12 169 6.4 20.9 0.69 0.18 0.18 73 1008.5
20260506202855 12 222 6.4 24.1 0.00 0.03 0.00 72 1008.5
20260506201903 12 219 8.0 24.1 0.00 0.00 0.00 72 1008.3
20260506195709 12 201 8.0 20.9 0.00 0.05 0.00 72 1008.2
20260506194657 12 180 8.0 20.9 0.00 0.08 0.00 71 1008.2
20260506193652 12 177 6.4 20.9 0.00 0.08 0.00 71 1008.1
20260506192630 12 173 6.4 20.9 0.00 0.15 0.00 71 1007.9
20260506191558 12 196 6.4 19.3 0.00 0.36 0.00 70 1008.0
20260506190602 12 198 6.4 14.5 0.00 0.51 0.00 70 1007.9
20260506185611 13 179 4.8 14.5 0.00 0.64 0.00 69 1007.7
20260506183448 13 173 6.4 24.1 0.00 0.64 0.00 69 1007.4
20260506182434 13 205 6.4 24.1 0.00 0.64 0.00 69 1007.3
20260506181455 13 181 6.4 16.1 0.00 0.64 0.00 69 1007.3
20260506180514 13 170 6.4 17.7 0.00 0.64 0.00 68 1007.3
20260506175528 13 214 6.4 17.7 0.00 0.64 0.00 68 1007.1
20260506173441 14 166 6.4 22.5 0.00 0.64 0.00 67 1006.8
20260506171341 14 173 9.7 20.9 0.00 0.66 0.00 67 1006.6
20260506170323 14 189 8.0 19.3 0.00 0.66 0.00 66 1006.5
20260506165252 15 221 6.4 16.1 0.00 0.66 0.00 65 1006.5
20260506163143 15 164 6.4 17.7 0.00 0.66 0.00 63 1006.5
20260506161041 16 190 6.4 22.5 0.00 0.66 0.00 59 1006.4
20260506160011 16 165 4.8 14.5 0.00 0.66 0.00 57 1006.4
20260506153939 17 130 1.6 8.0 0.00 0.66 0.00 51 1006.2
20260506152913 17 155 1.6 6.4 0.00 0.66 0.00 50 1006.2
20260506151925 18 173 1.6 11.3 0.00 0.66 0.00 50 1006.1
20260506150933 18 171 3.2 9.7 0.00 0.66 0.00 49 1006.2
20260506144748 18 207 1.6 8.0 0.00 0.66 0.00 49 1006.1
20260506143751 18 209 0.0 0.0 0.00 0.66 0.00 50 1006.0
20260506142805 18 271 1.6 9.7 0.00 0.66 0.00 49 1005.9
20260506141829 17 266 1.6 11.3 0.00 0.66 0.00 50 1005.9
20260506140825 17 286 1.6 11.3 0.00 0.66 0.00 49 1005.9
20260506135759 17 234 1.6 8.0 0.00 0.69 0.00 49 1005.9
20260506133650 18 284 3.2 19.3 0.00 0.71 0.00 50 1006.1
20260506132650 18 270 4.8 19.3 0.00 0.74 0.00 50 1006.1
20260506130449 18 238 4.8 17.7 0.00 0.74 0.00 50 1006.0
20260506125442 18 257 1.6 11.3 0.00 0.74 0.00 51 1006.0
20260506124442 18 271 4.8 12.9 0.00 0.74 0.00 51 1006.0
20260506123440 18 277 1.6 17.7 0.00 0.74 0.00 49 1005.9
20260506121255 20 262 4.8 20.9 0.00 0.74 0.00 49 1005.9
20260506120232 19 251 1.6 17.7 0.00 0.74 0.00 49 1005.9
20260506115247 19 209 3.2 17.7 0.00 0.74 0.00 49 1006.0
20260506114232 18 268 4.8 12.9 0.00 0.74 0.00 50 1006.0
20260506113214 18 250 4.8 0.0 0.00 0.74 0.00 50 1006.1
20260506112217 18 259 3.2 11.3 0.00 0.74 0.00 52 1006.2
20260506111223 17 182 3.2 0.0 0.00 0.74 0.00 54 1006.4
20260506110239 18 267 4.8 14.5 0.00 0.74 0.00 52 1006.5
20260506105251 18 273 1.6 16.1 0.00 0.74 0.00 52 1006.5
20260506104220 17 262 4.8 16.1 0.00 0.74 0.00 54 1006.6
20260506103234 17 291 1.6 14.5 0.00 0.74 0.00 54 1006.6
20260506102254 17 286 4.8 16.1 0.00 0.74 0.00 54 1006.6
20260506101226 17 257 4.8 16.1 0.00 0.74 0.00 54 1006.6
20260506093954 16 265 4.8 14.5 0.00 0.74 0.00 58 1006.8
20260506093012 16 287 3.2 17.7 0.00 0.74 0.00 58 1006.7
20260506085735 17 213 4.8 17.7 0.00 0.74 0.00 59 1006.7
20260506084702 16 206 6.4 17.7 0.00 0.74 0.00 60 1006.6
20260506083644 16 242 4.8 12.9 0.00 0.74 0.00 62 1006.4
20260506081527 15 310 6.4 12.9 0.00 0.74 0.00 64 1006.2
20260506080539 15 280 6.4 12.9 0.00 0.74 0.00 66 1006.2
20260506072336 14 221 3.2 9.7 0.00 0.74 0.00 84 1006.4
20260506070301 13 217 1.6 6.4 0.00 0.74 0.00 84 1006.3
20260506062100 12 223 0.0 0.0 0.00 0.74 0.00 85 1006.2
20260506061045 12 183 0.0 0.0 0.00 0.74 0.00 85 1006.2
20260506051143 11 184 0.0 0.0 0.00 0.74 0.00 83 1006.3
20260506050124 11 184 0.0 0.0 0.00 0.74 0.00 83 1006.3
20260506045123 11 184 0.0 0.0 0.00 0.74 0.00 82 1006.2
20260506044146 11 184 0.0 0.0 0.00 0.74 0.00 82 1006.2
20260506042035 11 184 3.2 8.0 0.00 0.74 0.00 82 1006.2
20260506041008 11 200 1.6 8.0 0.00 0.74 0.00 82 1006.2
20260506035937 11 217 0.0 3.2 0.00 0.74 0.00 82 1006.1
20260506034934 11 217 1.6 8.0 0.00 0.74 0.00 82 1006.2
20260506032850 11 173 0.0 0.0 0.00 0.74 0.00 82 1006.4
20260506031816 11 173 0.0 0.0 0.00 0.74 0.00 82 1006.5
20260506030837 11 173 0.0 0.0 0.00 0.74 0.00 82 1006.5
20260506024638 11 167 3.2 12.9 0.00 0.74 0.00 82 1006.7
20260506023621 12 179 6.4 14.5 0.00 0.74 0.00 82 1006.7
20260506022622 12 175 6.4 14.5 0.00 0.74 0.00 81 1006.7
20260506021601 12 180 3.2 12.9 0.00 0.74 0.00 81 1006.7
20260506015445 12 172 1.6 8.0 0.00 0.74 0.00 81 1006.7
20260506013336 12 180 4.8 14.5 0.00 0.74 0.00 81 1006.8
20260506012315 12 200 4.8 9.7 0.00 0.74 0.00 81 1006.8
20260506011247 12 187 0.0 8.0 0.00 0.74 0.00 80 1006.9
20260506010308 12 166 0.0 0.0 0.00 0.74 0.00 80 1007.0
20260506005250 12 166 0.0 0.0 0.00 0.74 0.00 80 1007.0
20260506003131 12 166 1.6 6.4 0.00 0.74 0.00 80 1007.2
20260506002120 12 165 0.0 4.8 0.00 0.74 0.00 79 1007.4
20260506001127 12 179 0.0 0.0 0.00 0.74 0.00 79 1007.3
20260506000147 12 179 1.6 6.4 0.00 0.74 0.00 79 1007.4
20260505235206 12 180 3.2 9.7 0.00 0.74 0.00 79 1007.4
20260505233125 12 174 1.6 6.4 0.00 0.74 0.00 78 1007.5
20260505232130 12 188 1.6 4.8 0.00 0.74 0.00 78 1007.5